Theta_e
322 315 309 313 302 301 295 301 308 307 306 309 312 309 308 310 307 301 318 320 319 320 323 325 329 330 330 329 328 328 328 327 327 327 326 325 325 325 324 324 323 323 325 326 326 326 326 325 324
318 314 313 307 298 292 295 302 304 307 310 312 311 310 307 306 316 316 317 318 318 320 322 323 327 327 327 326 326 326 326 326 325 325 325 324 324 323 323 322 322 322 323 324 324 324 323 323 322
310 311 307 300 296 294 296 301 302 306 311 309 307 309 305 308 316 317 317 318 318 318 320 320 323 324 324 324 324 324 323 323 323 323 322 322 321 320 320 321 321 321 322 322 323 323 322 322 321
305 307 301 294 291 293 298 301 304 304 307 310 307 303 311 316 316 320 318 319 315 316 316 318 321 322 321 320 319 320 321 320 320 321 321 321 320 319 319 319 319 319 319 320 320 320 320 319 319
305 301 293 290 289 292 293 296 303 304 304 306 308 302 305 317 320 320 319 319 315 315 312 311 317 318 319 318 317 317 318 318 318 319 317 319 319 319 318 317 316 317 318 318 318 318 318 318 318
303 299 291 289 289 291 293 295 302 303 305 305 306 305 307 318 317 317 317 315 312 308 306 306 309 312 313 316 316 315 316 316 316 313 313 313 313 312 311 311 312 311 311 311 312 313 312 311 310
299 295 290 288 289 291 294 297 298 299 302 302 309 302 307 315 318 318 317 310 305 303 301 300 300 303 308 311 315 315 315 314 310 308 307 306 305 304 304 304 306 307 307 308 308 308 307 307 306
300 296 289 288 289 291 293 295 299 300 300 307 307 302 301 311 317 316 314 303 300 298 298 296 296 296 297 299 308 310 309 306 304 303 302 300 298 299 299 300 302 303 304 304 304 305 304 304 302
301 293 289 289 291 291 292 294 300 302 300 301 305 303 309 314 315 313 306 299 297 297 294 294 294 293 294 296 298 300 303 301 299 297 298 294 290 291 290 296 298 299 300 300 300 300 300 298 295
295 292 291 289 288 288 290 290 292 295 296 299 300 309 310 312 313 308 304 300 297 294 292 291 291 291 292 296 292 292 293 292 291 290 290 290 288 290 291 291 295 295 295 295 296 296 295 291 286
292 291 290 290 291 290 289 288 288 288 288 295 298 304 310 310 309 308 305 302 297 294 291 291 290 289 290 290 289 288 290 288 289 288 288 288 287 286 286 285 285 285 289 286 287 286 286 286 285
290 292 292 292 291 289 288 288 288 289 291 294 299 305 310 309 309 308 305 299 294 291 290 289 288 288 288 288 287 287 287 288 287 287 288 286 285 284 284 284 284 284 285 284 284 284 285 285 285
290 289 291 291 290 288 289 287 286 287 290 294 302 305 307 308 308 305 300 296 293 290 288 287 287 287 288 287 286 286 286 286 286 286 287 286 285 284 284 284 284 283 284 283 284 284 285 284 284
290 290 288 289 289 289 287 286 285 288 286 292 301 303 304 305 304 297 296 294 291 291 288 287 287 287 287 286 285 285 285 286 285 285 285 287 286 284 284 284 284 284 284 284 283 283 283 283 283
290 287 289 288 289 289 287 285 284 288 290 292 297 301 302 302 299 297 296 293 291 289 289 287 287 287 285 285 285 285 286 286 284 284 285 285 286 285 283 284 283 283 284 283 284 283 284 283 283
287 287 282 288 287 288 286 282 287 287 289 291 292 297 298 300 298 297 296 293 290 288 287 287 289 286 285 284 284 284 284 284 283 284 284 285 286 284 283 282 282 283 283 283 282 282 282 281 281
283 277 279 283 285 285 284 283 286 287 289 289 290 293 296 297 296 295 293 290 288 287 285 285 285 284 284 284 284 283 283 283 283 282 283 284 284 284 282 281 282 282 282 281 281 281 280 279 279
278 279 280 280 283 282 281 282 286 285 284 284 285 287 289 294 297 295 291 289 287 285 284 284 284 284 284 283 282 282 282 282 282 282 283 284 284 283 281 281 280 281 280 279 279 278 279 278 278
280 279 278 281 282 280 277 280 284 286 283 283 283 283 285 287 293 293 290 287 285 283 284 283 283 283 282 281 280 280 279 281 281 284 284 284 282 282 281 279 279 279 278 278 278 277 276 276 277
280 280 278 281 281 279 279 281 283 283 282 282 283 285 285 288 290 289 287 284 284 284 283 283 283 283 283 282 281 280 279 280 280 281 281 281 281 281 279 279 278 278 277 277 276 275 274 274 275
279 279 277 278 280 279 278 282 283 283 283 283 284 284 286 288 289 288 286 284 283 283 282 283 283 282 282 281 281 280 279 279 278 278 278 279 280 279 278 278 278 276 276 275 274 273 273 271 273
278 281 280 279 278 275 279 277 282 282 282 282 282 281 282 284 289 288 286 284 283 282 281 282 282 281 280 280 278 276 275 274 275 275 276 277 277 276 277 277 275 274 274 272 272 274 272 272 269
279 281 279 279 276 276 277 273 282 281 284 283 281 281 280 282 284 284 283 283 281 280 280 279 279 279 279 278 277 276 275 275 275 274 274 275 275 276 276 275 274 273 272 272 271 270 270 270 269
282 281 280 278 275 272 270 274 281 283 283 281 280 281 281 280 280 280 281 281 280 279 278 278 278 277 277 277 276 275 274 273 273 273 273 273 274 274 273 273 272 271 270 270 270 270 269 268 268
280 279 274 276 273 276 264 272 283 285 282 282 283 281 281 280 279 279 279 278 277 277 277 277 277 276 276 276 275 275 274 273 272 272 272 271 271 271 271 271 270 269 269 269 269 269 268 268 268
278 277 275 270 271 274 266 272 283 283 280 280 281 281 281 280 280 279 279 277 276 276 276 276 276 275 275 275 274 274 274 273 272 272 271 271 270 270 270 269 269 269 269 269 268 268 268 268 267
279 274 277 268 259 266 274 279 285 282 281 280 280 280 280 280 279 278 277 276 275 275 275 275 275 275 274 274 273 273 273 272 271 271 271 270 270 270 269 268 268 268 268 268 268 267 267 267 267
279 279 275 273 269 268 274 270 280 282 282 280 279 280 280 280 278 277 276 275 275 274 275 274 274 274 274 273 273 272 272 272 271 270 269 269 269 269 268 267 267 267 267 267 267 266 266 266 267
275 274 275 275 275 270 266 277 281 282 281 279 280 280 279 278 279 278 275 275 275 275 274 273 273 273 273 273 272 271 271 270 270 269 269 268 268 267 267 266 266 266 266 266 266 266 266 266 266
279 278 278 276 274 270 270 274 281 279 273 271 278 280 279 276 277 277 276 275 276 275 273 273 273 272 272 272 271 270 270 269 268 268 268 268 267 267 266 266 266 265 265 266 265 265 265 265 266
Wind_Speed
8 7 2 5 6 6 1 1 2 2 1 2 2 3 4 3 1 3 3 3 3 3 4 6 12 13 14 14 13 13 12 11 12 12 12 12 12 12 12 13 13 13 14 14 14 14 14 14 14
5 4 4 3 6 3 3 2 2 1 5 6 5 2 3 2 2 5 3 3 3 3 4 5 10 11 11 12 12 11 12 11 11 12 12 12 12 12 12 13 13 14 14 15 15 15 15 15 15
3 2 5 5 4 4 4 2 2 1 6 1 3 4 1 3 1 4 4 5 3 4 3 5 8 9 11 12 12 11 10 10 10 11 11 11 10 10 11 12 12 13 15 15 15 15 15 15 15
2 5 5 6 3 1 2 3 2 4 3 4 2 4 1 1 3 5 7 4 4 3 4 6 8 9 10 9 9 9 9 9 9 10 12 12 11 10 11 13 12 14 14 14 15 15 16 16 16
4 3 6 4 0 1 1 2 4 3 2 2 1 2 1 1 4 6 5 5 4 3 5 5 10 9 9 9 9 9 9 9 9 11 12 13 13 13 13 14 13 14 15 15 16 15 16 18 18
5 3 5 3 1 1 3 2 2 1 2 2 4 5 2 2 6 6 5 5 5 5 4 5 8 10 9 8 8 7 7 7 9 10 12 12 13 12 12 13 14 15 15 16 17 17 17 18 18
6 4 3 4 2 3 2 2 2 2 2 0 6 3 1 4 5 5 4 6 6 4 5 5 5 6 8 10 9 8 7 8 9 10 11 12 13 14 15 16 15 15 15 16 16 17 18 19 20
5 6 3 1 4 5 0 1 1 2 1 1 2 4 4 5 8 5 5 6 5 4 4 5 4 5 5 5 9 8 8 9 10 11 11 12 13 14 15 15 15 17 16 18 18 19 20 21 20
2 6 2 4 6 3 3 2 3 1 1 0 2 2 2 6 9 6 5 4 3 3 3 3 3 5 5 5 7 8 9 9 10 9 11 7 4 5 7 13 16 17 17 19 19 20 20 20 19
6 4 5 0 1 2 2 2 2 2 2 4 3 2 2 7 10 10 7 7 5 3 1 2 3 3 5 4 5 5 5 4 4 4 5 4 5 5 8 10 15 16 17 19 20 21 19 14 6
3 3 2 2 1 1 2 2 3 1 6 9 8 7 11 8 8 9 7 7 6 3 2 1 2 3 4 4 2 2 2 3 3 5 4 4 3 4 3 3 3 4 10 5 8 8 6 8 6
5 3 2 2 1 1 2 4 5 7 11 6 11 5 11 15 14 11 7 6 7 6 4 2 2 3 3 3 3 2 2 3 3 3 4 3 3 4 4 3 4 4 3 4 5 5 7 8 8
4 1 1 1 1 3 2 6 7 11 12 5 5 7 14 12 10 5 6 5 6 5 5 4 3 3 3 4 2 3 4 3 4 4 5 3 4 4 4 4 4 4 4 4 6 7 7 8 9
1 2 0 2 3 4 2 5 2 7 1 8 8 9 10 11 9 4 6 7 7 6 6 5 4 4 3 2 4 3 3 4 3 4 5 6 4 4 4 4 5 4 4 6 5 7 7 8 7
3 3 3 2 3 4 2 7 11 9 3 7 9 7 8 8 6 9 10 9 8 5 6 5 5 3 4 3 4 4 3 3 4 4 5 6 5 5 5 4 5 6 8 9 7 9 8 8 8
6 5 4 1 7 1 1 11 6 0 4 10 9 6 6 7 9 8 8 7 7 6 6 5 4 4 4 4 2 2 3 3 3 4 4 5 5 6 5 5 6 7 6 6 8 8 8 9 10
8 2 3 8 5 5 2 12 5 2 4 9 7 8 8 8 8 7 6 8 7 6 6 5 5 4 4 3 2 2 3 3 3 4 3 4 5 6 7 6 6 6 7 7 7 8 9 10 10
3 4 4 6 5 3 7 23 17 7 7 10 9 8 8 8 12 7 7 6 5 5 5 6 4 4 3 1 1 1 2 3 3 4 4 7 4 7 6 5 7 7 7 8 8 10 8 9 10
2 2 5 6 3 8 2 15 18 9 3 5 5 6 8 8 5 6 7 6 6 4 4 5 5 2 2 2 2 2 2 2 3 2 6 5 7 7 7 6 7 8 8 9 10 9 11 9 10
2 3 6 8 2 2 8 22 7 3 1 2 5 7 3 2 2 3 5 5 6 4 3 3 3 3 3 2 1 1 2 2 3 3 4 6 8 8 10 10 8 9 8 10 9 11 11 9 8
1 2 3 5 10 1 9 10 4 1 2 2 4 3 5 2 3 5 6 5 3 2 3 4 4 6 5 5 3 3 3 2 2 4 4 7 7 8 9 10 8 9 9 8 10 11 13 12 10
3 1 1 5 6 4 6 7 7 2 3 2 2 4 5 6 3 2 4 4 3 3 5 6 6 6 6 5 4 4 2 3 3 3 4 5 6 9 9 8 9 9 7 10 9 10 10 11 12
4 1 1 2 3 4 5 4 11 2 6 8 4 1 4 5 5 6 6 6 6 6 6 6 6 6 5 5 5 3 3 3 3 3 7 6 7 8 8 10 9 9 7 9 11 11 11 9 10
4 3 6 4 3 4 2 4 10 5 6 1 2 4 2 2 5 6 6 6 6 5 6 5 5 5 6 6 5 5 5 6 6 7 6 6 6 6 8 11 8 8 9 9 9 10 11 11 10
6 5 6 9 7 6 3 1 15 6 4 4 7 9 8 5 4 4 5 5 4 5 5 4 5 5 5 5 5 6 6 6 7 8 7 9 7 6 8 9 9 8 9 10 10 10 10 10 10
4 4 6 4 4 7 2 8 9 4 2 3 4 6 5 5 4 5 5 5 5 4 4 4 5 5 5 5 7 6 7 5 5 7 8 6 7 8 10 9 9 10 11 9 10 8 9 10 9
2 4 1 7 2 4 4 10 13 3 7 6 7 6 7 7 7 6 5 5 5 4 3 4 5 4 6 6 7 7 6 8 8 9 8 7 9 9 10 10 10 10 11 11 10 8 11 10 10
3 3 4 4 3 6 8 8 10 8 9 7 9 11 9 7 6 5 4 5 4 3 2 4 4 4 5 6 7 7 7 8 8 8 10 10 10 10 11 11 11 11 11 11 11 10 11 11 10
1 2 4 3 4 5 4 11 10 11 6 8 11 10 9 7 6 4 4 4 4 3 3 3 4 6 6 7 8 8 8 8 9 9 9 10 11 11 10 11 11 11 11 11 11 11 13 12 12
1 3 4 6 7 3 2 16 4 5 4 4 10 8 5 2 3 5 6 5 2 2 2 3 4 5 6 6 7 8 9 9 9 10 11 11 11 10 11 11 11 12 12 11 12 12 13 14 15
Wind_Direction
330 321 54 41 59 64 34 57 272 165 81 352 52 99 131 36 90 209 114 84 79 29 5 21 45 46 45 45 40 35 30 24 21 16 12 9 5 4 1 359 357 353 351 349 347 346 346 345 342
328 336 43 81 85 73 278 267 118 306 145 137 78 62 48 114 56 120 141 117 103 56 21 31 41 44 39 40 34 27 23 18 15 12 8 3 2 2 360 357 354 355 351 347 344 344 343 342 339
291 334 78 86 102 148 185 195 187 60 153 162 99 56 86 133 88 118 98 145 122 76 38 40 39 39 35 35 28 22 19 18 15 13 7 1 359 359 0 357 354 353 348 343 341 341 340 338 336
349 12 36 74 71 286 207 134 158 136 174 66 105 73 66 329 147 152 156 135 134 112 54 27 40 35 31 29 22 14 12 13 14 11 7 359 357 352 355 357 356 347 347 348 345 344 342 338 337
33 51 63 75 272 286 45 265 197 188 97 94 154 142 146 246 119 129 150 169 172 111 49 40 45 30 19 20 15 13 12 15 19 18 9 11 6 12 7 4 355 356 355 352 347 347 348 350 345
40 85 74 153 247 291 258 269 141 58 122 81 69 143 203 122 161 168 162 149 120 110 72 51 40 31 15 27 7 16 11 19 29 18 17 22 20 20 13 7 4 0 355 356 353 354 351 347 345
106 70 121 128 160 309 230 32 158 181 67 250 150 150 202 196 202 161 142 97 99 96 73 47 40 29 34 36 27 32 34 53 36 29 30 30 24 23 19 15 6 5 357 358 354 354 347 346 342
97 91 92 120 175 243 105 112 66 65 231 121 90 213 229 196 161 142 117 120 110 92 74 58 41 33 28 43 35 39 47 46 40 36 38 35 29 25 21 14 7 4 1 359 353 350 345 343 342
112 64 125 208 161 268 11 31 3 354 143 12 237 220 328 129 137 145 140 158 136 96 64 56 49 35 19 55 36 28 36 40 39 33 29 31 25 13 24 9 9 6 1 357 352 348 342 341 338
64 93 195 91 52 350 23 54 293 285 296 250 265 267 147 155 168 184 188 186 187 181 114 63 53 44 38 39 32 27 28 23 30 27 21 16 18 2 14 7 6 3 359 355 350 345 343 339 325
9 110 122 25 168 227 311 273 296 212 270 226 210 201 190 186 180 201 210 189 189 163 163 130 83 55 48 36 31 24 12 15 0 8 12 9 10 356 354 347 350 346 351 342 341 334 328 320 318
87 48 53 229 321 6 258 291 285 199 231 218 221 192 183 197 204 207 205 182 163 173 180 160 104 88 72 54 33 5 13 12 2 351 349 358 353 340 335 332 328 331 323 325 325 321 315 316 311
70 173 56 225 331 301 312 252 241 251 244 253 256 185 191 205 210 200 176 165 160 182 188 186 142 88 61 53 15 15 12 10 354 358 347 343 332 331 321 328 324 321 322 316 321 320 310 312 313
132 115 68 338 313 274 297 274 20 270 319 205 212 208 200 205 196 150 163 184 183 191 189 178 141 100 91 69 35 31 16 12 19 359 345 342 339 333 330 318 317 313 310 312 299 312 304 309 303
130 12 346 332 326 301 355 279 230 245 220 223 228 224 224 216 174 194 190 188 186 188 177 166 144 120 73 58 46 38 27 22 10 349 346 350 345 344 328 324 324 324 324 319 314 316 305 300 299
41 49 6 233 353 3 11 269 264 156 186 249 245 247 232 227 213 203 197 182 177 171 168 147 129 124 82 73 73 37 24 14 2 348 350 359 345 342 341 333 324 318 321 314 318 315 311 310 306
14 227 285 314 55 301 217 277 247 42 261 266 268 243 241 244 233 214 191 181 179 167 149 143 137 143 132 97 73 40 17 10 349 347 359 345 336 356 351 329 318 327 325 322 319 321 310 308 306
301 329 297 250 331 337 270 268 288 299 273 263 260 248 236 237 236 198 182 167 152 137 154 148 157 135 115 119 23 9 4 344 354 346 7 348 345 348 330 317 330 332 329 323 324 312 313 309 307
297 272 275 264 12 333 281 283 296 303 297 325 310 275 256 249 261 182 162 150 137 141 149 162 155 131 66 18 1 1 333 322 330 355 342 345 347 340 335 340 333 336 330 323 318 316 321 318 311
225 293 291 288 315 5 338 296 275 250 227 334 330 359 330 178 99 134 137 148 162 167 169 135 117 81 45 46 30 7 295 302 299 355 340 354 342 346 344 337 330 332 326 327 332 329 319 312 329
233 261 336 268 324 203 318 297 332 349 58 28 2 342 12 346 187 175 177 165 157 134 138 130 100 76 54 47 21 351 335 331 358 339 332 339 342 344 337 333 340 345 338 334 332 326 318 311 309
330 115 303 304 24 287 19 280 312 334 264 223 291 16 3 8 45 112 165 159 158 107 95 85 77 67 61 36 39 38 8 335 314 320 321 321 337 335 333 345 346 336 342 322 317 328 327 322 311
244 267 276 86 83 13 357 76 266 322 262 234 203 136 36 32 45 59 59 87 85 86 93 98 88 73 57 54 46 24 0 320 307 306 326 335 334 330 338 336 343 332 325 324 323 315 317 311 305
334 20 27 61 92 21 270 91 281 236 217 195 186 193 187 136 91 90 82 86 87 81 83 81 79 58 44 38 28 15 7 334 340 337 328 327 319 328 328 335 330 327 320 316 313 313 314 315 306
26 41 345 359 8 234 237 28 246 262 246 225 222 205 198 160 133 133 128 116 101 77 53 65 46 44 35 29 20 2 356 344 336 331 326 323 322 324 326 323 330 318 315 314 312 310 305 307 302
12 102 143 250 272 282 11 239 252 222 276 261 233 194 169 158 166 163 160 134 111 80 58 45 32 31 30 23 5 353 351 338 327 326 323 315 322 317 315 330 317 317 313 312 310 307 301 304 305
338 48 129 100 72 24 262 283 291 272 272 251 231 212 209 204 202 190 143 145 123 98 76 44 28 27 17 10 357 342 342 334 325 323 315 317 316 311 326 315 314 310 311 312 313 303 307 301 296
118 156 40 7 335 289 286 273 242 291 273 252 249 237 222 206 201 188 160 140 129 103 68 53 31 14 6 358 347 339 325 323 319 316 318 317 314 316 312 311 308 308 309 312 308 307 302 299 293
36 25 32 120 143 205 289 264 215 236 225 249 245 235 227 214 200 161 150 143 135 110 51 38 10 0 351 347 338 327 321 321 319 314 313 315 310 312 307 305 306 309 308 309 309 303 297 297 295
293 181 160 119 279 233 158 268 237 256 247 227 267 244 228 214 164 159 156 162 169 71 47 356 357 341 345 332 324 317 317 317 314 312 311 310 309 308 305 304 304 306 305 305 306 300 298 292 290